DELTA 1 DEB, 21914

Orbit data source: Space-Track

DELTA 1 DEB, 21914 is space debris in SSO originally from a launch on Thu, 12 Jun 1975 UTC launched from the Air Force Western Test Range (AFWTR). Debris objects in space refer to the collection of defunct objects orbiting the Earth. Examples of debris include non-operational satellites, rocket bodies, and fragments generated from explosions, collisions, or faulty payload assembly.

Loading next visibility...
Identifier
21914, 1975-052JS
Orbit
SSO
Country
Flag of USUS
Related business
Manufacturer
Unknown
Mission
Spacecraft
Bus & Motor
Unknown
Mass
Unknown
Launch date (UTC)
1975-06-12 (50 years ago)
Launch vehicle
Unknown
Launch site
Air Force Western Test Range (AFWTR)
Object type
Payload
Rocket body
Debris
Shape & HBR
Unknown shape, 0.1 m
Radar Cross Section
Small (<0.1 m²)

Expand to show TLE details & history
Last TLE update: 1 day ago

TLE from 1 day ago
0 DELTA 1 DEB
1 21914U 75052JS  25290.71268398  .00000216  00000-0  13757-2 0  9992
2 21914  99.4774   4.1808 0634035 205.4486 314.3140 12.13815992497007
Epoch: 2025-10-17T17:06Z
TLE epoch observation values (Epoch: 2025-10-17T17:06:15.895Z)
Latitude
25.38559°
Longitude
-94.31904°
Altitude
1,285.719 km
Speed
7.366 km/s
True Right ascension
12h 34m 48s
True Declination
25° 15' 43"
Sunlit
Object was in daylight at epoch
Visualization orbit readout
Latitude
Unknown
Longitude
Unknown
Altitude
Unknown
Speed
Unknown
Apparent Right ascension
Unknown
Apparent Declination
Unknown
Sunlit
N/A
Visualization observer readout
Local Sidereal Time
14:24:05
Azimuth
Unknown
Elevation
Unknown
Doppler factor
Unknown
Orbital elements
Apogee altitude
2,123.974 km
Perigee altitude
1,110.128 km
Semi-major axis
7,995.188 km
Eccentricity
0.0634
Inclination
99.4774°
RAAN
4.1808°
Arg. of periapsis
205.4486°
True anomaly
308.81993°
Mean anomaly
314.314°
Eccentric anomaly
311.59732°
Mean motion
3.03599 °/min
Orbital period
118.58 mins
BSTAR
0.0013757
Loading maneuver chart data...
Computing Atmospheric mass density...

Documentation

Showing up to 5 results
|